Location: Kelowna
(49.9000°N, 119.4830°W)
Time: 23:29:05
(UTC-08:00)

Envisat - Visible Passes

Search period start: 20 November 2018 00:00
Search period end: 30 November 2018 00:00
Orbit: 764 x 766 km, 98.2° (Epoch: 21 November)

Date Brightness Start Highest point End Pass type
(mag) Time Alt. Az. Time Alt. Az. Time Alt. Az.
20 Nov 5.8 06:31:08 10° NE 06:34:29 17° E 06:37:50 10° SE visible
20 Nov 3.5 17:49:38 10° SE 17:54:15 36° ENE 17:58:52 10° N visible
20 Nov 4.3 19:29:45 16° SSW 19:33:16 37° W 19:37:59 10° NNW visible
21 Nov 4.2 17:14:15 10° ESE 17:17:52 20° ENE 17:21:29 10° NNE visible
21 Nov 3.1 18:52:44 19° S 18:56:21 74° WSW 19:01:28 10° NNW visible
21 Nov 6.0 20:34:51 10° W 20:36:18 11° W 20:37:45 10° WNW visible
22 Nov 4.8 16:40:18 10° ENE 16:41:40 11° NE 16:43:02 10° NE visible
22 Nov 3.0 18:15:40 16° SE 18:19:39 57° ENE 18:24:39 10° N visible
22 Nov 5.1 19:55:53 13° SW 19:59:02 23° W 20:03:03 10° NW visible
23 Nov 6.0 06:20:29 10° NE 06:23:09 14° E 06:25:47 10° ESE visible
23 Nov 3.7 17:38:46 10° ESE 17:43:08 30° ENE 17:47:32 10° N visible
23 Nov 4.0 19:18:49 20° SSW 19:22:00 45° W 19:26:54 10° NNW visible
24 Nov 4.4 17:03:38 10° E 17:06:49 17° NE 17:09:59 10° NNE visible
24 Nov 2.9 18:41:45 21° SSE 18:45:10 89° W 18:50:17 10° NNW visible
24 Nov 5.8 20:22:19 10° WSW 20:24:56 14° W 20:27:33 10° NW visible
25 Nov 5.7 06:45:01 10° NE 06:49:02 23° E 06:53:02 10° SE visible
25 Nov 3.2 18:04:38 16° SE 18:08:31 47° ENE 18:13:22 10° N visible
25 Nov 4.8 19:44:51 17° SW 19:47:44 28° W 19:52:06 10° NW visible
26 Nov 6.2 06:10:16 10° ENE 06:11:47 11° E 06:13:18 10° ESE visible
26 Nov 3.9 17:27:57 10° ESE 17:32:03 25° ENE 17:36:10 10° N visible
26 Nov 3.6 19:07:44 23° S 19:10:46 55° W 19:15:47 10° NNW visible
27 Nov 4.6 16:53:11 10° E 16:55:46 14° NE 16:58:23 10° NNE visible
27 Nov 2.8 18:30:35 21° SSE 18:33:58 75° ENE 18:39:04 10° NNW visible
27 Nov 5.5 20:10:48 12° SW 20:13:35 17° W 20:16:55 10° NW visible
28 Nov 5.8 06:34:09 10° NE 06:37:43 19° E 06:41:16 10° SE visible
28 Nov 3.4 17:53:25 14° SE 17:57:23 39° ENE 18:02:05 10° N visible
28 Nov 4.5 19:33:38 20° SSW 19:36:27 34° W 19:41:05 10° NNW visible
29 Nov 4.1 17:17:13 10° ESE 17:20:58 21° ENE 17:24:45 10° N visible
29 Nov 3.2 18:56:26 24° S 18:59:32 68° WSW 19:04:38 10° NNW visible
29 Nov 6.0 20:39:18 10° W 20:39:32 10° W 20:39:46 10° W visible
